Time,TemperatureF,DewpointF,PressureIn,WindDirection,WindDirectionDegrees,WindSpeedMPH,WindSpeedGustMPH,Humidity,HourlyPrecipIn,Conditions,Clouds,dailyrainin,SolarRadiationWatts/m^2,SoftwareType,DateUTC
2012-11-19 00:22:00,37.0,27.0,-100.00,South,172,8.0,18.0,66,0.00,,,0.05,50.000000,,2012-11-19 00:22:00,
2012-11-19 00:32:00,37.0,27.0,-100.00,South,172,8.0,18.0,66,0.00,,,0.05,50.000000,,2012-11-19 00:32:00,
2012-11-19 00:42:00,37.0,27.0,-100.00,South,172,8.0,18.0,66,0.00,,,0.05,50.000000,,2012-11-19 00:42:00,
2012-11-19 00:52:00,37.0,27.0,-100.00,South,172,8.0,18.0,66,0.00,,,0.05,50.000000,,2012-11-19 00:52:00,
2012-11-19 02:22:00,36.0,29.0,-100.00,South,175,10.0,20.0,75,-99.99,,,0.04,1.000000,,2012-11-19 02:22:00,
2012-11-19 02:32:00,36.0,29.0,-100.00,South,175,10.0,20.0,75,-99.99,,,0.04,1.000000,,2012-11-19 02:32:00,
2012-11-19 02:42:00,36.0,29.0,-100.00,South,175,10.0,20.0,75,-99.99,,,0.04,1.000000,,2012-11-19 02:42:00,
2012-11-19 02:52:00,36.0,29.0,-100.00,South,175,10.0,20.0,75,-99.99,,,0.04,1.000000,,2012-11-19 02:52:00,
2012-11-19 03:22:00,36.0,27.0,-100.00,South,174,9.0,22.0,69,0.00,,,0.04,1.000000,,2012-11-19 03:22:00,
2012-11-19 03:32:00,36.0,27.0,-100.00,South,174,9.0,22.0,69,0.00,,,0.04,1.000000,,2012-11-19 03:32:00,
2012-11-19 03:42:00,36.0,27.0,-100.00,South,174,9.0,22.0,69,0.00,,,0.04,1.000000,,2012-11-19 03:42:00,
2012-11-19 03:52:00,36.0,27.0,-100.00,South,174,9.0,22.0,69,0.00,,,0.04,1.000000,,2012-11-19 03:52:00,
2012-11-19 04:12:00,37.0,28.0,-100.00,South,179,11.0,23.0,70,0.00,,,-99.99,1.000000,,2012-11-19 04:12:00,
2012-11-19 04:22:00,37.0,28.0,-100.00,South,179,11.0,23.0,70,0.00,,,-99.99,1.000000,,2012-11-19 04:22:00,
2012-11-19 04:32:00,37.0,28.0,-100.00,South,179,11.0,23.0,70,0.00,,,-99.99,1.000000,,2012-11-19 04:32:00,
2012-11-19 04:42:00,37.0,28.0,-100.00,South,179,11.0,23.0,70,0.00,,,-99.99,1.000000,,2012-11-19 04:42:00,
2012-11-19 04:52:00,37.0,28.0,-100.00,South,179,11.0,23.0,70,0.00,,,-99.99,1.000000,,2012-11-19 04:52:00,
2012-11-19 05:22:00,37.0,28.0,-100.00,South,178,9.0,21.0,71,0.00,,,0.04,1.000000,,2012-11-19 05:22:00,
2012-11-19 05:32:00,37.0,28.0,-100.00,South,178,9.0,21.0,71,0.00,,,0.04,1.000000,,2012-11-19 05:32:00,
2012-11-19 05:42:00,37.0,28.0,-100.00,South,178,9.0,21.0,71,0.00,,,0.04,1.000000,,2012-11-19 05:42:00,
2012-11-19 05:52:00,37.0,28.0,-100.00,South,178,9.0,21.0,71,0.00,,,0.04,1.000000,,2012-11-19 05:52:00,
2012-11-19 06:22:00,37.0,28.0,-100.00,South,176,8.0,22.0,71,0.00,,,0.04,1.000000,,2012-11-19 06:22:00,
2012-11-19 06:32:00,37.0,28.0,-100.00,South,176,8.0,22.0,71,0.00,,,0.04,1.000000,,2012-11-19 06:32:00,
2012-11-19 06:42:00,37.0,28.0,-100.00,South,176,8.0,22.0,71,0.00,,,0.04,1.000000,,2012-11-19 06:42:00,
2012-11-19 06:52:00,37.0,28.0,-100.00,South,176,8.0,22.0,71,0.00,,,0.04,1.000000,,2012-11-19 06:52:00,
2012-11-19 07:22:00,37.0,28.0,-100.00,SSE,165,11.0,23.0,70,0.00,,,0.04,1.000000,,2012-11-19 07:22:00,
2012-11-19 07:32:00,37.0,28.0,-100.00,SSE,165,11.0,23.0,70,0.00,,,0.04,1.000000,,2012-11-19 07:32:00,
2012-11-19 07:42:00,37.0,28.0,-100.00,SSE,165,11.0,23.0,70,0.00,,,0.04,1.000000,,2012-11-19 07:42:00,
2012-11-19 07:52:00,37.0,28.0,-100.00,SSE,165,11.0,23.0,70,0.00,,,0.04,1.000000,,2012-11-19 07:52:00,
2012-11-19 08:22:00,37.0,28.0,-100.00,SSE,161,11.0,26.0,71,0.00,,,0.04,1.000000,,2012-11-19 08:22:00,
2012-11-19 08:32:00,37.0,28.0,-100.00,SSE,161,11.0,26.0,71,0.00,,,0.04,1.000000,,2012-11-19 08:32:00,
2012-11-19 08:42:00,37.0,28.0,-100.00,SSE,161,11.0,26.0,71,0.00,,,0.04,1.000000,,2012-11-19 08:42:00,
2012-11-19 08:52:00,37.0,28.0,-100.00,SSE,161,11.0,26.0,71,0.00,,,0.04,1.000000,,2012-11-19 08:52:00,
2012-11-19 09:22:00,37.0,29.0,-100.00,SSE,164,10.0,25.0,74,0.00,,,0.04,1.000000,,2012-11-19 09:22:00,
2012-11-19 09:32:00,37.0,29.0,-100.00,SSE,164,10.0,25.0,74,0.00,,,0.04,1.000000,,2012-11-19 09:32:00,
2012-11-19 09:42:00,37.0,29.0,-100.00,SSE,164,10.0,25.0,74,0.00,,,0.04,1.000000,,2012-11-19 09:42:00,
2012-11-19 09:52:00,37.0,29.0,-100.00,SSE,164,10.0,25.0,74,0.00,,,0.04,1.000000,,2012-11-19 09:52:00,
2012-11-19 10:22:00,37.0,29.0,-100.00,SSE,166,10.0,26.0,73,0.00,,,0.04,1.000000,,2012-11-19 10:22:00,
2012-11-19 10:32:00,37.0,29.0,-100.00,SSE,166,10.0,26.0,73,0.00,,,0.04,1.000000,,2012-11-19 10:32:00,
2012-11-19 10:42:00,37.0,29.0,-100.00,SSE,166,10.0,26.0,73,0.00,,,0.04,1.000000,,2012-11-19 10:42:00,
2012-11-19 10:52:00,37.0,29.0,-100.00,SSE,166,10.0,26.0,73,0.00,,,0.04,1.000000,,2012-11-19 10:52:00,
2012-11-19 11:22:00,37.0,29.0,-100.00,South,170,11.0,23.0,73,0.00,,,0.04,1.000000,,2012-11-19 11:22:00,
2012-11-19 11:32:00,37.0,29.0,-100.00,South,170,11.0,23.0,73,0.00,,,0.04,1.000000,,2012-11-19 11:32:00,
2012-11-19 11:42:00,37.0,29.0,-100.00,South,170,11.0,23.0,73,0.00,,,0.04,1.000000,,2012-11-19 11:42:00,
2012-11-19 11:53:00,37.0,29.0,-100.00,South,170,11.0,23.0,73,0.00,,,0.04,1.000000,,2012-11-19 11:53:00,
2012-11-19 12:22:00,38.0,29.0,-100.00,South,173,12.0,23.0,70,0.00,,,0.04,1.000000,,2012-11-19 12:22:00,
2012-11-19 12:32:00,38.0,29.0,-100.00,South,173,12.0,23.0,70,0.00,,,0.04,1.000000,,2012-11-19 12:32:00,
2012-11-19 12:42:00,38.0,29.0,-100.00,South,173,12.0,23.0,70,0.00,,,0.04,1.000000,,2012-11-19 12:42:00,
2012-11-19 12:52:00,38.0,29.0,-100.00,South,173,12.0,23.0,70,0.00,,,0.04,1.000000,,2012-11-19 12:52:00,
2012-11-19 13:22:00,38.0,28.0,-100.00,South,182,12.0,27.0,68,0.00,,,0.04,1.000000,,2012-11-19 13:22:00,
2012-11-19 13:32:00,38.0,28.0,-100.00,South,182,12.0,27.0,68,0.00,,,0.04,1.000000,,2012-11-19 13:32:00,
2012-11-19 13:42:00,38.0,28.0,-100.00,South,182,12.0,27.0,68,0.00,,,0.04,1.000000,,2012-11-19 13:42:00,
2012-11-19 13:52:00,38.0,28.0,-100.00,South,182,12.0,27.0,68,0.00,,,0.04,1.000000,,2012-11-19 13:52:00,
2012-11-19 14:22:00,39.0,30.0,-100.00,South,187,13.0,27.0,70,0.00,,,0.04,1.000000,,2012-11-19 14:22:00,
2012-11-19 14:32:00,39.0,30.0,-100.00,South,187,13.0,27.0,70,0.00,,,0.04,1.000000,,2012-11-19 14:32:00,
2012-11-19 14:42:00,39.0,30.0,-100.00,South,187,13.0,27.0,70,0.00,,,0.04,1.000000,,2012-11-19 14:42:00,
2012-11-19 14:52:00,39.0,30.0,-100.00,South,187,13.0,27.0,70,0.00,,,0.04,1.000000,,2012-11-19 14:52:00,
2012-11-19 15:22:00,39.0,30.0,-100.00,South,170,12.0,28.0,71,0.00,,,0.04,1.000000,,2012-11-19 15:22:00,
2012-11-19 15:32:00,39.0,30.0,-100.00,South,170,12.0,28.0,71,0.00,,,0.04,1.000000,,2012-11-19 15:32:00,
2012-11-19 15:42:00,39.0,30.0,-100.00,South,170,12.0,28.0,71,0.00,,,0.04,1.000000,,2012-11-19 15:42:00,
2012-11-19 15:52:00,39.0,30.0,-100.00,South,170,12.0,28.0,71,0.00,,,0.04,1.000000,,2012-11-19 15:52:00,
2012-11-19 16:22:00,40.0,30.0,-100.00,South,180,12.0,26.0,68,0.00,,,0.04,9.000000,,2012-11-19 16:22:00,
2012-11-19 16:32:00,40.0,30.0,-100.00,South,180,12.0,26.0,68,0.00,,,0.04,9.000000,,2012-11-19 16:32:00,
2012-11-19 16:42:00,40.0,30.0,-100.00,South,180,12.0,26.0,68,0.00,,,0.04,9.000000,,2012-11-19 16:42:00,
2012-11-19 16:52:00,40.0,30.0,-100.00,South,180,12.0,26.0,68,0.00,,,0.04,9.000000,,2012-11-19 16:52:00,
2012-11-19 17:22:00,41.0,31.0,-100.00,South,178,10.0,27.0,68,0.00,,,0.04,55.000000,,2012-11-19 17:22:00,
2012-11-19 17:32:00,41.0,31.0,-100.00,South,178,10.0,27.0,68,0.00,,,0.04,55.000000,,2012-11-19 17:32:00,
2012-11-19 17:42:00,41.0,31.0,-100.00,South,178,10.0,27.0,68,0.00,,,0.04,55.000000,,2012-11-19 17:42:00,
2012-11-19 17:52:00,41.0,31.0,-100.00,South,178,10.0,27.0,68,0.00,,,0.04,55.000000,,2012-11-19 17:52:00,
2012-11-19 18:22:00,41.0,32.0,-100.00,SSE,166,9.0,22.0,69,0.00,,,0.00,57.000000,,2012-11-19 18:22:00,
2012-11-19 18:32:00,41.0,32.0,-100.00,SSE,166,9.0,22.0,69,0.00,,,0.00,57.000000,,2012-11-19 18:32:00,
2012-11-19 18:42:00,41.0,32.0,-100.00,SSE,166,9.0,22.0,69,0.00,,,0.00,57.000000,,2012-11-19 18:42:00,
2012-11-19 18:52:00,41.0,32.0,-100.00,SSE,166,9.0,22.0,69,0.00,,,0.00,57.000000,,2012-11-19 18:52:00,
2012-11-19 19:22:00,45.0,34.0,-100.00,South,175,10.0,18.0,64,0.00,,,0.00,110.000000,,2012-11-19 19:22:00,
2012-11-19 19:32:00,45.0,34.0,-100.00,South,175,10.0,18.0,64,0.00,,,0.00,110.000000,,2012-11-19 19:32:00,
2012-11-19 19:42:00,45.0,34.0,-100.00,South,175,10.0,18.0,64,0.00,,,0.00,110.000000,,2012-11-19 19:42:00,
2012-11-19 19:52:00,45.0,34.0,-100.00,South,175,10.0,18.0,64,0.00,,,0.00,110.000000,,2012-11-19 19:52:00,
2012-11-19 20:22:00,47.0,34.0,-100.00,SSE,166,10.0,22.0,60,0.00,,,0.00,143.000000,,2012-11-19 20:22:00,
2012-11-19 20:32:00,47.0,34.0,-100.00,SSE,166,10.0,22.0,60,0.00,,,0.00,143.000000,,2012-11-19 20:32:00,
2012-11-19 20:42:00,47.0,34.0,-100.00,SSE,166,10.0,22.0,60,0.00,,,0.00,143.000000,,2012-11-19 20:42:00,
2012-11-19 20:52:00,47.0,34.0,-100.00,SSE,166,10.0,22.0,60,0.00,,,0.00,143.000000,,2012-11-19 20:52:00,
2012-11-19 21:22:00,46.0,35.0,-100.00,South,175,12.0,22.0,65,0.00,,,0.00,178.000000,,2012-11-19 21:22:00,
2012-11-19 21:32:00,46.0,35.0,-100.00,South,175,12.0,22.0,65,0.00,,,0.00,178.000000,,2012-11-19 21:32:00,
2012-11-19 21:42:00,46.0,35.0,-100.00,South,175,12.0,22.0,65,0.00,,,0.00,178.000000,,2012-11-19 21:42:00,
2012-11-19 21:52:00,46.0,35.0,-100.00,South,175,12.0,22.0,65,0.00,,,0.00,178.000000,,2012-11-19 21:52:00,
2012-11-19 22:12:00,48.0,35.0,-100.00,South,178,10.0,22.0,60,0.00,,,0.00,217.000000,,2012-11-19 22:12:00,
2012-11-19 22:22:00,48.0,35.0,-100.00,South,178,10.0,22.0,60,0.00,,,0.00,217.000000,,2012-11-19 22:22:00,
2012-11-19 22:32:00,48.0,35.0,-100.00,South,178,10.0,22.0,60,0.00,,,0.00,217.000000,,2012-11-19 22:32:00,
2012-11-19 22:42:00,48.0,35.0,-100.00,South,178,10.0,22.0,60,0.00,,,0.00,217.000000,,2012-11-19 22:42:00,
2012-11-19 22:52:00,48.0,35.0,-100.00,South,178,10.0,22.0,60,0.00,,,0.00,217.000000,,2012-11-19 22:52:00,
2012-11-19 23:22:00,47.0,34.0,-100.00,South,173,12.0,24.0,61,0.00,,,0.00,128.000000,,2012-11-19 23:22:00,
2012-11-19 23:32:00,47.0,34.0,-100.00,South,173,12.0,24.0,61,0.00,,,0.00,128.000000,,2012-11-19 23:32:00,
2012-11-19 23:42:00,47.0,34.0,-100.00,South,173,12.0,24.0,61,0.00,,,0.00,128.000000,,2012-11-19 23:42:00,
2012-11-19 23:52:00,47.0,34.0,-100.00,South,173,12.0,24.0,61,0.00,,,0.00,128.000000,,2012-11-19 23:52:00,